Address 0x3f6f2fba04913458ca7900433ca639bac4e58f9d

 
 
Txn Hash Method
Block
From
To
Value [Txn Fee]
0x0d61336d2d40815e299894480aabfedede42a23b8d48049bac8b2db49004c605Transfer75243282021-05-18 19:30:07125 days 21 hrs ago0x3f6f2fba04913458ca7900433ca639bac4e58f9dOUT0xf92af852dbf472de98763db7c68041c81a611b950.015198248100652 BNB0.000105
0xddef7690d01e174550d2c213316380f4ed42c75a708e28b9486a3d452051ab77Get Airdrop69334632021-04-27 15:34:48147 days 1 hr ago0x3f6f2fba04913458ca7900433ca639bac4e58f9dOUT Moon Chain Finance: MCF Token0 BNB0.000303325
0xeedc59f78d429453981f3e7089be5f8a7676d74df6138d641ef551d743bc36f6Get Airdrop69334432021-04-27 15:33:48147 days 1 hr ago0x3f6f2fba04913458ca7900433ca639bac4e58f9dOUT Moon Chain Finance: MCF Token0 BNB0.000303325
0x9b88a6723fb5ff8a6896fd10b02c67a4d294dbb07da26c3bd59e15d0268df332Get Airdrop69334362021-04-27 15:33:27147 days 1 hr ago0x3f6f2fba04913458ca7900433ca639bac4e58f9dOUT Moon Chain Finance: MCF Token0 BNB0.000378325
0x04390231397cc533b7a62c5e7e673e11d4d3860296bd43e26c67ee193b823dc7Swap Exact Token...67995062021-04-22 23:16:21151 days 18 hrs ago0x3f6f2fba04913458ca7900433ca639bac4e58f9dOUT PancakeSwap: Router0 BNB0.000799345
0xbe300095d6d1bd33cda7fa7e3468f357341dd7d4567fa4eb81753e16d52a58b2Approve67994652021-04-22 23:14:18151 days 18 hrs ago0x3f6f2fba04913458ca7900433ca639bac4e58f9dOUT 0x23481f4d3ac4642d2f45d014a514b45b0338b9270 BNB0.000222015
0x73b8a3934c4f04a75fcdd94c68a8639db08f390475414999c56b1a2383254fd9Transfer67984472021-04-22 22:23:24151 days 18 hrs ago0x3f6f2fba04913458ca7900433ca639bac4e58f9dOUT Shield Protocol: SHIELD Token0 BNB0.000180575
0xb1e22223b84ec7ff8c40ebb74513ba57645b8b8e7de92503e7aa46261c2f4221Swap Exact Token...66528512021-04-17 19:21:33156 days 21 hrs ago0x3f6f2fba04913458ca7900433ca639bac4e58f9dOUT PancakeSwap: Router0 BNB0.00119421
0x7301d09b9049c799bbf471b9eb9321af90ad361072ca57da8dd033e9e003f569Approve66528442021-04-17 19:21:12156 days 21 hrs ago0x3f6f2fba04913458ca7900433ca639bac4e58f9dOUT CafeSwap: BREW Token0 BNB0.000222515
0x4d4c7ae65e80839bc7389c2055300fb65d8f29f36d46ae5b263d22484f46be83Get Airdrop66526252021-04-17 19:10:15156 days 22 hrs ago0x3f6f2fba04913458ca7900433ca639bac4e58f9dOUT 0x23481f4d3ac4642d2f45d014a514b45b0338b9270 BNB0.000237005
0x59f08dbde643a1d7923c85df3e500401b204823a60ab8fae239b9737663097e9Get Airdrop66526232021-04-17 19:10:09156 days 22 hrs ago0x3f6f2fba04913458ca7900433ca639bac4e58f9dOUT 0x23481f4d3ac4642d2f45d014a514b45b0338b9270 BNB0.000237005
0xa4c1e8abe0d2b75ff6bfa7f303e164cf373f4464ba26a56308189c760d49d679Get Airdrop66526192021-04-17 19:09:57156 days 22 hrs ago0x3f6f2fba04913458ca7900433ca639bac4e58f9dOUT 0x23481f4d3ac4642d2f45d014a514b45b0338b9270 BNB0.000237005
0x8dbd4ba219081c663dd13579742f7a6189f750c297e7fb02af2bea1033f8a5b5Get Airdrop66526012021-04-17 19:09:03156 days 22 hrs ago0x3f6f2fba04913458ca7900433ca639bac4e58f9dOUT 0x23481f4d3ac4642d2f45d014a514b45b0338b9270 BNB0.000303325
0xbbd8857bc2336aacede48d3cea0b0439fde8dfbeae2cc671d98da6cb39916356Get Airdrop66525992021-04-17 19:08:57156 days 22 hrs ago0x3f6f2fba04913458ca7900433ca639bac4e58f9dOUT 0x23481f4d3ac4642d2f45d014a514b45b0338b9270 BNB0.000303325
0x7af5a3b2025897994865e98b256917d087dee355536c1cf770bb7356f6909b10Get Airdrop66525962021-04-17 19:08:48156 days 22 hrs ago0x3f6f2fba04913458ca7900433ca639bac4e58f9dOUT 0x23481f4d3ac4642d2f45d014a514b45b0338b9270 BNB0.000303325
0x79d68aca26d7a02cd388377f931058c0e0fe89865c9f3d6e1dea293941f6496bGet Airdrop66525922021-04-17 19:08:36156 days 22 hrs ago0x3f6f2fba04913458ca7900433ca639bac4e58f9dOUT 0x23481f4d3ac4642d2f45d014a514b45b0338b9270 BNB0.000303325
0x16138691e322124784ffe5249ab102c27282dde251052c4d7c90b5acedae294bGet Airdrop66525862021-04-17 19:08:18156 days 22 hrs ago0x3f6f2fba04913458ca7900433ca639bac4e58f9dOUT 0x23481f4d3ac4642d2f45d014a514b45b0338b9270 BNB0.000303325
0xd436b7cac566f8e099c1878e8d21d13031f06a703064bea93faae8d216f50163Get Airdrop66525772021-04-17 19:07:51156 days 22 hrs ago0x3f6f2fba04913458ca7900433ca639bac4e58f9dOUT 0x23481f4d3ac4642d2f45d014a514b45b0338b9270 BNB0.000303325
0x1feffd8491f156c0c13b55595c10c0b8990b858b3ac3a769a80e7af95a6a2225Get Airdrop66525572021-04-17 19:06:51156 days 22 hrs ago0x3f6f2fba04913458ca7900433ca639bac4e58f9dOUT 0x23481f4d3ac4642d2f45d014a514b45b0338b9270 BNB0.000303325
0x50f10b607ae90aae6333bfc4521d7dc9c0e08cd25c5483008fe2f8e7e66f9b16Get Airdrop66525462021-04-17 19:06:18156 days 22 hrs ago0x3f6f2fba04913458ca7900433ca639bac4e58f9dOUT 0x23481f4d3ac4642d2f45d014a514b45b0338b9270 BNB0.000378325
0x4e8ac735e9aa22f78e2940fb5907853af7e816752b6221f6395e307641876b9fTransfer65985472021-04-15 21:57:44158 days 19 hrs ago0x3f6f2fba04913458ca7900433ca639bac4e58f9dOUT Binance: BUSD Stablecoin0 BNB0.000180695
0x87c2225c8923ff1a3921f06d960760cc7fbaac9e465a5b67ea46a33712cb4253Swap Exact Token...65513442021-04-14 6:35:13160 days 10 hrs ago0x3f6f2fba04913458ca7900433ca639bac4e58f9dOUT PancakeSwap: Router0 BNB0.001172645
0xdbec761f6837af2c7bacfb8820d1c99623772e09b76327eb53af6eb6d7f68cfdSwap Exact Token...65413862021-04-13 22:17:19160 days 19 hrs ago0x3f6f2fba04913458ca7900433ca639bac4e58f9dOUT PancakeSwap: Router0 BNB0.002860595
0xe019168001d3eb0b7d61ea1ffffb74d6848b57b29b904fbd66c0c4ba6de10a47Approve65413732021-04-13 22:16:40160 days 19 hrs ago0x3f6f2fba04913458ca7900433ca639bac4e58f9dOUT 0x8928e999504b1013b790b3df17090f49ec0c8b460 BNB0.00022226
0x94749e5e74e8b854652dd0af0d20dc231cd6f9764a211efb9881d6ac7593bffeApprove65413682021-04-13 22:16:25160 days 19 hrs ago0x3f6f2fba04913458ca7900433ca639bac4e58f9dOUT 0xfa74795b8e399265247655ba0ab421a9f9c1b9580 BNB0.00022274
[ Download CSV Export 
Latest 2 internal transactions
Parent Txn Hash Block From To Value
0xcd0f1c917a6708e9f214c373b6bace1f0de5cbe90eb0dbd654669b57d06b27bd62001102021-04-01 22:02:12172 days 19 hrs ago Just Liquidity: Router0x3f6f2fba04913458ca7900433ca639bac4e58f9d0.015349663100652395 BNB
0x564e57121df5fa9f479bfbedfab2cd3612a1603189322fd2bae1c96eed236cb758930782021-03-22 3:55:31183 days 13 hrs ago Binance: WBNB Token0x3f6f2fba04913458ca7900433ca639bac4e58f9d0.233057490277925567 BNB
[ Download CSV Export 
Loading

Contract Name:
0 BNB

Compiler Version
0

Optimization Enabled:
0 BNB

Other Settings:
-NA-
Block Transaction Gas Used Reward
Age Block Fee Address BC Fee Address Voting Power Jailed Incoming
Block Uncle Number Difficulty Gas Used Reward
Loading
Loading
Make sure to use the "Vote Down" button for any spammy posts, and the "Vote Up" for interesting conversations.